Regional Weather Roundup
Issued by NWS

Home | Current Version | Previous Version | Graphics & Text | Print | Product List | Glossary On
Versions: 1 2 3 4 5 6 7 8 9 10 11 12 13 14 15 16 17 18 19 20 21 22 23 24 25 26 27 28 29 30 31 32 33 34 35 36 37 38 39 40 41 42 43 44 45 46 47 48 49 50
000
ASUS45 KCYS 081210
RWRWY

WYOMING REGIONAL WEATHER ROUNDUP
NATIONAL WEATHER SERVICE CHEYENNE WY
500 AM MST MON FEB 08 2016

NOTE:  "FAIR" INDICATES FEW OR NO CLOUDS BELOW 12,000 FEET
WITH NO SIGNIFICANT WEATHER AND/OR OBSTRUCTIONS TO VISIBILITY.

WYZ001-081300-
YELLOWSTONE NATIONAL PARK

CITY           SKY/WX    TMP DP  RH WIND       PRES   REMARKS
LK YELLOWSTONE   N/A     11   7  84 CALM      30.59R
6HR MIN TEMP:  11; 6HR MAX TEMP:  22;

W YELLOWSTONE  NOT AVBL

$$
WYZ002>013-054>058-071-098>099-081300-
NORTHERN WYOMING

CITY           SKY/WX    TMP DP  RH WIND       PRES   REMARKS
JACKSON        FAIR       7   5  92 N7        30.58S WCI  -5
CODY           FAIR      21  12  68 CALM      30.40R
GREYBULL       FAIR      22  17  81 E5        30.43S WCI  16
6HR MIN TEMP:  21; 6HR MAX TEMP:  30;

WORLAND        FAIR      20  15  81 CALM      30.43S
6HR MIN TEMP:  17; 6HR MAX TEMP:  28;

SHERIDAN       CLOUDY    30  12  47 CALM      30.38F
6HR MIN TEMP:  26; 6HR MAX TEMP:  31;

BUFFALO        CLOUDY    24  12  60 CALM      30.38S
6HR MIN TEMP:  22; 6HR MAX TEMP:  27;

GILLETTE       FAIR      21   9  59 W13       30.38R WCI   9
6HR MIN TEMP:  19; 6HR MAX TEMP:  25;

HULETT         PTSUNNY   27  10  50 W3        30.38S
NEWCASTLE      FAIR      23   9  54 NW21      30.33S WCI   8

$$
WYZ014>020-022>026-101>103-081300-
CENTRAL WYOMING

CITY           SKY/WX    TMP DP  RH WIND       PRES   REMARKS
BIG PINEY      FAIR      21  14  74 NE13      30.50S WCI   9
6HR MIN TEMP:  19; 6HR MAX TEMP:  28;

PINEDALE       FAIR      30  19  64 W25G32    30.46S WCI  16
DUBOIS         FAIR      32  21  64 W24G32    30.45R WCI  19
LANDER         FAIR      21  11  65 SW8       30.39F WCI  11
6HR MIN TEMP:  14; 6HR MAX TEMP:  21;

RIVERTON       FAIR      16   9  74 SW3       30.41F
6HR MIN TEMP:  14; 6HR MAX TEMP:  22;

CASPER         FAIR      24  13  62 SW15      30.39R WCI  11
6HR MIN TEMP:  16; 6HR MAX TEMP:  26;

DOUGLAS        FAIR      17  10  74 W10         N/A  WCI   5
6HR MIN TEMP:  16; 6HR MAX TEMP:  21;


$$
WYZ021-027>030-104>119-081300-
SOUTHERN WYOMING

CITY           SKY/WX    TMP DP  RH WIND       PRES   REMARKS
EVANSTON       FAIR      20  14  77 SW7       30.60R WCI  11
6HR MIN TEMP:  19; 6HR MAX TEMP:  25;

FORT BRIDGER   SUNNY     30  18  59 W16       30.60R WCI  19
ROCK SPRINGS   FAIR      26  16  65 W23       30.49S WCI  11
6HR MIN TEMP:  25; 6HR MAX TEMP:  28;

DIXON          FAIR      12   8  81 CALM      30.56R
RAWLINS        FAIR      24  15  68 W12G22    30.45S WCI  13
6HR MIN TEMP:  23; 6HR MAX TEMP:  27;

SARATOGA       FAIR      28  19  69 W21       30.44F WCI  15
LARAMIE          N/A     32  18  56 NW16      30.34S WCI  21
6HR MIN TEMP:  17; 6HR MAX TEMP:  32;

CHEYENNE       FAIR      34  18  52 NW18G31   30.30S WCI  23
6HR MIN TEMP:  17; 6HR MAX TEMP:  34;

TORRINGTON     CLOUDY    22  12  65 NW9       30.37R WCI  12
6HR MIN TEMP:  21; 6HR MAX TEMP:  25;

PINE BLUFFS    PTSUNNY   19  12  73 CALM      30.34R

$$



USA.gov is the U.S. government's official web portal to all federal, state and local government web resources and services.